Simultaneous Nadir Overpasses (SNOs) Predictions

Prediction of SNOs between GOES-14 and AQUA Satellite Orbit:

Table of predicted SNOs for the next 14.0 days since TLE Epoch: 8/5/2023
Index Date Time (GOES-14) GOES-14 Lat,Lon AQUA Lat,Lon Distance(km) Time Diff (sec)
1 08/05/2023 21:07:01 0.41,-108.54 0.45,-108.52 4.75 80
2 08/07/2023 20:52:40 0.41,-108.55 1.14,-105.01 402.04 80
3 08/08/2023 09:10:43 -0.43,-108.66 -0.14,-110.04 156.80 80
4 08/10/2023 08:59:02 -0.43,-108.66 -0.88,-106.53 241.37 80
5 08/10/2023 21:17:13 0.45,-108.55 -0.18,-111.59 345.11 80
6 08/12/2023 21:05:31 0.45,-108.55 0.56,-108.08 53.33 80
7 08/14/2023 20:51:09 0.46,-108.55 1.32,-104.58 452.21 80
8 08/15/2023 09:09:11 -0.47,-108.66 -0.28,-109.59 106.02 80
9 08/17/2023 08:57:28 -0.47,-108.66 -1.03,-106.09 293.42 80
10 08/17/2023 21:15:38 0.49,-108.55 -0.04,-111.13 292.74 80
